Location: *
(32.8140°S, 174.6161°E)
Time: 23:23:19
(UTC+00:00)

Cosmos 1980 Rocket - Pass Details

Date: 10 December 2019
Orbit: 829 x 850 km, 71.0° (Epoch: 24 January)

Event Time Altitude Azimuth Distance (km) Brightness Sun altitude
Exits shadow 14:40:30 32° 257° (WSW) 1,396 3.1 -24.3°
Maximum altitude 14:41:08 33° 243° (WSW) 1,373 3.2 -24.2°
Drops below altitude 10° 14:46:12 10° 179° (S) 2,462 5.3 -23.5°
Sets 14:48:54 0° 170° (S) 3,402 6.4 -23.2°
